GEFSSE_850_meantemp_084.txt.gz
Temperature
10 9 9 8 8 8 8 8 8 8 8 7 7 7 6 6 6 6 6 6 6 6 6 6 6 6 6 6 6 7 8 9 10 10 10 10 10 9 10 11 11 11 11
10 9 9 8 8 8 8 8 8 8 8 7 7 7 6 6 6 6 6 6 5 5 5 5 5 5 5 5 6 6 8 9 9 9 9 9 9 8 8 9 9 9 10
10 9 8 8 8 8 8 8 8 8 8 7 7 7 6 6 6 5 5 5 5 5 5 5 5 5 5 5 5 6 7 8 8 8 8 8 8 7 6 7 7 8 9
9 9 8 8 8 8 8 8 8 8 8 8 7 7 6 6 6 5 5 5 5 5 5 5 5 5 5 5 5 6 7 8 8 8 8 7 7 5 5 5 6 6 7
9 8 8 8 8 8 8 8 8 8 8 8 7 7 7 6 6 6 5 5 5 5 5 5 5 5 5 5 6 7 7 8 8 8 8 7 6 5 4 4 4 5 5
9 8 8 8 8 8 8 8 8 8 8 8 7 7 7 7 6 6 6 5 5 5 5 5 5 5 5 5 6 7 7 7 7 7 7 7 6 5 4 4 4 4 4
9 8 8 8 8 8 8 8 8 8 8 8 8 7 7 7 6 6 5 5 5 5 5 5 5 5 5 5 6 6 7 7 7 6 6 6 6 5 4 4 4 3 3
9 8 8 8 8 8 8 8 8 8 8 8 7 7 7 6 6 6 5 5 5 5 5 5 5 5 5 5 5 6 6 6 6 6 6 6 5 4 3 3 3 3 3
8 8 8 7 8 8 8 8 8 8 8 7 7 7 7 6 6 5 5 5 5 5 5 5 5 5 5 5 5 5 5 5 5 5 5 5 5 4 3 2 3 3 3
9 8 8 7 7 7 7 8 7 7 7 7 7 7 6 6 6 5 5 5 5 5 5 5 4 4 4 4 4 4 4 4 4 4 4 4 4 3 2 2 2 2 2
9 8 8 7 8 8 7 7 7 7 7 7 7 6 6 6 5 5 5 5 4 4 4 4 4 4 4 4 4 3 3 3 3 3 3 3 2 2 1 1 0 1 1
10 9 8 8 8 8 7 7 7 7 7 7 6 6 6 5 5 5 5 4 4 4 4 4 4 3 3 3 3 3 2 2 2 2 1 1 1 1 -0 -1 -1 -1 -1
11 10 9 8 8 8 8 7 7 7 7 7 6 6 6 5 5 5 4 4 4 4 3 3 3 3 3 2 2 2 1 1 0 0 0 0 0 -0 -1 -2 -2 -2 -2
11 11 10 9 8 8 8 7 7 7 7 6 6 6 6 5 5 5 4 4 4 3 3 3 3 2 2 2 1 1 0 -0 -1 -1 -1 -1 -1 -1 -2 -2 -2 -2 -2
12 11 11 9 9 8 8 7 7 7 7 6 6 6 5 5 5 5 4 4 3 3 3 3 2 2 1 1 0 -0 -1 -1 -2 -2 -2 -2 -2 -2 -2 -3 -3 -3 -3
13 12 11 10 9 8 8 7 7 7 7 6 6 6 5 5 5 4 4 4 3 3 2 2 2 1 1 0 -0 -1 -1 -2 -2 -2 -3 -3 -2 -3 -3 -3 -3 -4 -3
14 13 11 11 9 8 8 7 7 7 6 6 6 6 5 5 5 4 4 3 3 3 2 2 1 1 0 -0 -1 -1 -1 -2 -2 -3 -3 -3 -3 -3 -3 -3 -4 -4 -4
14 13 12 11 10 9 8 7 7 7 6 6 6 5 5 5 5 4 4 3 3 2 2 1 1 -0 -1 -1 -1 -1 -2 -2 -2 -2 -3 -3 -4 -4 -4 -4 -4 -4 -4
14 13 12 12 10 9 8 8 7 7 6 6 6 5 5 5 4 4 3 3 2 2 1 1 0 -0 -1 -2 -2 -2 -2 -2 -2 -2 -3 -3 -4 -4 -4 -5 -5 -5 -5
14 13 12 12 11 10 8 8 7 7 6 6 6 6 5 5 4 4 3 3 2 2 1 1 -0 -1 -1 -2 -2 -2 -2 -2 -2 -2 -3 -3 -4 -4 -5 -5 -5 -5 -5
14 13 13 12 11 10 9 8 8 7 7 6 6 6 5 5 4 4 3 3 2 2 1 0 -0 -1 -2 -3 -3 -3 -3 -2 -2 -3 -3 -3 -4 -4 -5 -5 -5 -6 -6
15 14 14 13 12 11 10 9 9 8 7 7 6 6 5 5 4 4 3 3 2 2 1 1 -0 -1 -2 -3 -4 -5 -4 -3 -3 -3 -3 -4 -4 -4 -5 -5 -5 -6 -6
15 15 15 14 13 12 11 10 8 8 7 7 7 7 6 5 5 4 4 3 2 2 1 1 -0 -1 -2 -3 -4 -5 -5 -3 -4 -5 -4 -4 -4 -5 -5 -5 -6 -6 -6
16 16 15 15 14 13 12 11 10 9 9 9 8 8 7 6 5 4 4 3 2 2 1 1 -0 -1 -2 -3 -4 -5 -5 -6 -6 -6 -5 -5 -5 -5 -5 -6 -6 -6 -6
16 16 16 15 14 14 13 12 11 10 10 9 7 7 7 7 6 5 4 3 3 2 2 1 -0 -1 -2 -2 -4 -5 -6 -6 -7 -8 -7 -6 -5 -5 -5 -6 -6 -6 -6
17 17 16 16 15 14 14 13 12 12 11 9 8 7 7 7 6 6 5 4 3 2 2 1 0 -1 -2 -2 -3 -5 -6 -6 -7 -7 -7 -7 -6 -6 -6 -6 -6 -6 -7

GEFSSE_850_meantemp_090.txt.gz
Temperature
12 13 12 11 11 10 10 9 9 9 8 8 8 7 7 7 7 7 7 7 7 6 6 6 6 6 7 7 8 8 9 10 9 9 9 8 8 8 8 9 10 10 10
14 13 12 11 11 10 10 9 9 9 8 8 8 7 7 7 7 7 6 6 6 6 6 6 6 6 6 6 7 8 9 9 8 8 8 8 7 7 7 7 8 8 9
13 13 12 11 11 10 10 9 9 9 8 8 8 7 7 7 7 6 6 6 6 6 6 5 5 5 6 6 6 7 8 8 8 8 8 8 6 6 6 6 6 7 7
13 12 12 11 11 10 10 9 9 9 8 8 8 7 7 7 7 6 6 6 6 6 6 6 5 5 6 6 7 7 8 7 8 8 8 8 6 5 5 5 5 5 6
13 12 12 11 11 10 10 9 9 9 9 8 8 8 7 7 7 7 7 6 6 6 6 6 6 6 6 6 7 7 8 7 8 8 8 7 6 5 5 5 5 5 5
12 12 12 11 10 10 10 9 9 9 9 9 8 8 8 7 7 7 7 7 7 7 6 6 6 6 6 7 7 7 8 8 8 8 8 8 7 5 5 5 5 5 5
12 12 12 11 11 10 10 9 9 9 9 9 9 8 8 8 8 7 7 7 7 7 7 7 7 7 7 7 7 7 8 7 7 7 8 8 7 5 5 4 4 4 4
12 11 12 11 11 10 10 9 9 9 9 9 9 9 8 8 8 8 8 7 7 7 7 7 7 7 7 7 7 7 7 7 7 7 7 7 6 5 5 5 5 4 4
12 11 11 11 11 10 10 9 9 9 9 9 9 9 9 8 8 8 8 8 7 7 7 7 7 7 7 7 7 7 7 7 7 7 7 7 6 5 5 5 4 4 4
11 11 11 11 11 10 10 10 9 9 9 9 9 9 9 8 8 8 8 8 7 7 7 7 7 7 7 7 7 7 7 7 6 6 6 6 6 5 5 4 4 4 4
11 11 10 10 10 10 10 10 9 9 9 9 9 9 9 8 8 8 8 7 7 7 7 7 7 6 7 7 7 6 6 6 6 6 6 6 6 5 5 4 4 3 3
13 12 11 10 10 10 9 9 9 9 9 9 9 9 8 8 8 8 8 7 7 7 7 7 6 6 6 6 6 6 6 6 6 6 6 5 5 5 4 4 3 3 3
14 13 12 11 10 9 9 9 9 9 9 9 9 9 8 8 8 7 7 7 7 7 7 7 6 6 6 6 6 6 6 5 5 5 5 5 5 4 4 3 3 2 2
14 14 13 11 10 10 9 9 9 9 9 9 9 9 8 8 8 8 7 7 7 7 7 6 6 6 6 6 5 5 5 5 5 5 5 4 4 4 4 3 3 2 2
14 14 13 12 11 10 9 9 9 9 9 9 9 8 8 8 8 7 7 7 7 6 6 6 6 5 5 5 5 5 5 5 4 4 4 4 4 3 3 2 2 2 1
14 14 14 12 12 11 10 10 9 9 9 9 9 9 8 8 8 7 7 7 7 6 6 6 6 5 5 5 5 5 4 4 4 4 3 3 3 3 2 2 1 1 1
15 14 14 13 12 11 11 10 10 9 9 9 9 9 8 8 8 7 7 7 7 6 6 6 5 5 5 4 4 4 4 4 4 3 3 3 2 2 2 1 1 1 0
14 13 13 13 12 11 11 10 10 9 9 9 9 9 9 8 8 7 7 7 6 6 6 5 5 5 5 4 4 4 4 3 3 3 3 2 2 2 1 1 0 -0 -0
14 13 12 12 12 12 11 10 10 9 9 9 9 9 9 8 8 7 7 7 6 6 6 5 5 5 4 4 4 3 3 3 3 3 2 2 2 1 1 0 -0 -1 -1
15 13 12 12 12 11 10 10 9 9 9 8 8 9 9 9 8 8 7 7 6 6 6 5 5 5 4 4 3 3 3 3 3 2 2 2 1 1 0 -0 -0 -1 -1
15 13 12 12 11 11 10 10 10 10 10 9 9 9 9 9 8 8 8 7 7 6 6 6 5 4 4 3 2 2 2 2 2 2 2 2 1 1 0 -0 -1 -1 -2
15 14 12 12 11 11 12 12 11 11 10 10 9 9 9 9 8 8 8 7 7 6 6 5 5 4 4 3 2 1 0 1 1 2 2 1 1 0 -0 -1 -1 -2 -2
14 14 13 12 11 11 11 10 9 8 8 8 9 10 9 9 9 8 8 8 7 6 6 6 5 4 4 3 2 1 0 0 0 0 0 0 0 0 -0 -1 -1 -2 -2
14 13 12 12 11 10 10 10 9 10 11 12 11 11 10 9 8 8 8 7 6 6 6 6 5 4 4 3 2 1 1 1 -0 -1 -1 -1 -1 -1 -1 -1 -2 -2 -3
14 13 13 12 11 10 10 10 9 10 11 10 9 9 8 8 8 7 7 6 6 5 5 5 4 4 4 3 3 2 1 -0 -1 -2 -2 -1 -1 -1 -1 -1 -2 -2 -3
14 14 13 12 12 11 10 10 9 10 10 9 8 8 8 7 7 7 6 5 5 5 4 4 3 3 3 3 2 2 1 0 -0 -1 -2 -2 -2 -1 -2 -2 -2 -3 -3

GEFSSE_850_meantemp_096.txt.gz
Temperature
15 14 13 12 12 12 12 11 11 10 10 9 9 9 8 8 8 8 8 7 7 7 7 7 7 7 7 7 7 8 8 9 9 9 9 9 9 9 9 10 10 10 10
17 15 13 13 12 12 12 11 11 10 10 9 9 9 8 8 8 8 7 7 7 7 7 7 7 7 7 7 7 7 8 9 9 9 9 9 8 8 8 8 8 9 9
17 16 14 13 12 12 12 11 11 10 10 10 9 9 8 8 8 7 7 7 7 7 7 7 7 7 7 7 7 7 8 9 9 9 9 8 7 7 7 7 7 8 8
17 16 14 13 12 12 12 12 11 11 10 10 9 9 8 8 8 7 7 7 7 7 7 7 7 7 7 7 7 7 8 9 9 8 8 8 7 6 6 6 6 6 7
17 16 15 13 12 12 12 12 11 11 10 10 9 9 9 8 8 8 8 8 8 8 7 7 7 7 7 7 7 7 9 9 8 8 8 7 6 5 5 5 5 5 6
17 16 14 13 12 12 11 11 11 11 10 10 10 9 9 9 8 8 8 8 8 8 8 8 7 7 7 7 7 8 9 9 8 8 8 7 6 5 5 5 5 5 5
17 16 14 13 12 11 11 11 11 11 11 10 10 9 9 9 9 9 8 8 8 8 8 8 8 8 8 8 8 8 8 8 8 8 8 7 6 5 5 5 5 5 5
17 16 14 13 12 11 11 11 11 11 11 10 10 10 9 9 9 9 9 9 8 8 8 8 8 8 8 8 8 8 8 8 8 8 7 7 6 5 5 5 5 5 5
16 15 14 13 12 11 11 11 11 11 11 11 10 10 10 10 9 9 9 9 9 9 8 8 8 8 8 8 8 8 8 8 8 8 7 7 6 5 5 5 5 5 4
15 14 14 13 12 11 11 10 11 11 11 11 11 10 10 10 10 9 9 9 9 9 9 9 8 8 8 8 8 8 8 8 8 8 7 7 6 6 5 5 5 5 5
14 14 13 13 12 12 11 10 10 10 10 10 11 11 10 10 10 10 10 9 9 9 9 9 9 8 8 8 8 8 8 8 8 7 7 7 7 6 6 5 5 5 5
16 15 14 13 13 12 11 11 10 10 10 11 11 11 11 10 10 10 10 10 9 9 9 9 8 8 8 8 8 8 8 8 8 7 7 7 7 6 6 6 5 5 5
17 16 15 14 13 12 11 11 11 11 11 11 11 11 10 10 10 10 10 10 9 9 9 9 9 8 8 8 8 8 8 8 8 7 7 7 7 7 6 6 5 5 5
16 16 16 14 13 12 12 11 11 11 11 11 11 11 10 10 10 10 10 10 9 9 9 9 8 8 8 8 8 8 8 7 7 7 7 7 7 6 6 5 5 5 4
16 16 16 15 14 13 12 11 11 11 11 11 11 11 10 10 10 10 10 10 9 9 9 8 8 8 8 8 8 8 7 7 7 7 7 7 6 6 6 5 5 4 4
17 16 16 15 14 13 13 12 12 12 11 11 11 11 10 10 10 10 10 9 9 9 9 8 8 8 8 8 8 8 7 7 7 7 7 6 6 6 6 5 5 4 4
18 17 16 15 14 14 13 13 12 12 11 11 11 11 10 10 10 10 9 9 9 9 8 8 8 7 8 7 8 7 7 7 7 7 6 6 6 6 6 5 5 4 4
18 17 16 15 14 13 13 13 12 12 11 11 11 10 10 10 10 9 9 9 9 8 8 8 8 7 7 7 7 7 7 7 7 6 6 6 6 6 6 5 5 5 4
18 17 16 15 14 14 13 12 11 11 11 10 10 10 10 9 9 9 9 9 8 8 8 7 7 7 7 7 7 6 6 6 6 6 6 6 6 6 6 5 5 5 4
18 17 16 15 14 13 12 11 10 10 10 10 10 10 9 9 9 8 8 8 8 7 7 7 7 7 7 6 6 6 6 6 6 6 6 6 6 6 5 5 5 4 4
18 17 16 15 14 13 12 11 11 11 10 10 10 10 9 9 8 8 8 8 7 7 7 7 6 6 6 6 5 5 5 6 6 6 6 6 6 6 5 5 5 4 4
17 16 16 15 14 14 13 13 12 11 10 10 10 9 9 9 8 8 7 7 7 6 6 6 6 6 5 5 4 4 3 5 6 6 6 6 6 6 5 5 5 4 4
16 16 15 15 14 13 13 12 11 10 10 10 10 10 9 9 8 8 7 7 6 6 6 6 5 5 5 5 4 3 3 3 5 5 5 6 6 6 5 5 5 4 4
15 15 14 14 13 13 12 11 11 11 11 11 10 10 9 9 8 8 7 7 6 6 5 5 5 4 4 4 3 3 3 3 2 3 4 4 4 4 5 4 4 4 4
14 14 14 13 12 12 12 11 11 10 10 10 10 9 9 9 8 8 7 7 6 6 5 5 4 4 4 3 3 3 2 2 1 0 1 2 2 3 3 4 3 3 3
14 14 13 13 12 12 11 11 11 10 10 10 9 9 9 8 8 8 7 7 6 6 5 5 4 4 3 3 2 2 1 1 1 0 -1 -0 0 1 2 2 2 2 2

GEFSSE_850_meantemp_102.txt.gz
Temperature
18 17 16 14 14 13 12 12 11 11 11 11 10 10 9 9 9 9 9 9 8 8 8 8 8 8 8 8 9 9 9 10 10 10 10 9 9 9 9 10 11 11 11
19 18 16 14 14 13 12 12 11 11 11 11 10 10 10 9 9 9 9 8 8 8 8 8 8 8 8 8 9 9 9 10 10 10 9 9 8 8 8 8 9 9 9
19 18 17 15 14 13 12 12 11 11 11 11 10 10 10 9 9 9 9 8 8 8 8 8 8 8 8 8 9 9 9 10 9 9 9 9 8 8 8 8 8 8 8
19 18 17 15 14 13 12 12 11 11 11 11 10 10 10 9 9 9 9 8 8 8 8 8 8 8 9 9 9 9 10 10 9 9 9 8 8 7 7 7 7 7 8
19 18 17 16 14 13 12 11 11 11 11 11 10 10 10 9 9 9 9 9 9 9 9 8 9 9 9 9 9 10 10 10 9 9 9 8 7 6 6 7 7 7 7
19 18 17 15 13 12 11 11 11 11 11 10 10 10 10 9 9 9 9 9 9 9 9 9 9 9 9 9 10 10 10 9 9 9 8 8 7 6 6 6 6 6 7
19 18 17 15 13 12 11 11 11 11 10 10 10 10 9 9 9 9 9 9 9 9 9 9 9 9 9 9 9 10 9 9 9 9 8 8 7 6 6 6 6 6 6
18 17 16 15 13 12 11 11 10 10 10 10 10 10 9 9 9 9 9 9 9 9 9 9 9 9 9 9 9 9 9 9 9 9 8 8 7 6 6 6 6 6 6
17 17 16 14 13 12 11 11 10 10 10 10 10 9 9 9 9 9 9 9 9 9 9 9 9 9 9 9 9 9 9 9 9 8 8 8 7 6 6 6 6 6 6
17 16 15 14 13 12 11 10 10 10 10 9 9 9 9 9 9 9 9 9 9 9 9 9 9 9 9 9 9 9 9 9 9 8 8 8 7 7 6 6 6 6 6
17 16 15 14 13 12 11 10 10 10 9 9 9 9 9 9 9 9 9 9 9 8 8 8 8 8 8 8 8 9 9 9 8 8 8 8 7 7 6 6 6 6 6
18 17 16 15 14 13 11 10 10 10 9 9 9 9 9 10 9 9 9 9 9 8 8 8 8 8 8 8 8 8 8 8 8 8 8 8 7 7 6 6 6 6 6
18 17 17 15 14 13 12 11 10 9 9 9 9 9 9 9 9 9 9 9 9 9 9 8 8 8 8 8 8 8 8 8 8 8 8 7 7 7 6 5 5 5 5
17 17 16 15 14 13 12 11 11 10 10 10 9 9 9 9 9 9 9 9 9 9 8 8 8 8 8 8 8 8 8 8 8 7 7 7 7 7 6 5 5 5 5
17 16 16 15 14 13 12 12 11 11 10 10 10 9 9 9 9 9 9 9 8 8 8 8 8 8 8 7 7 7 7 7 7 7 7 7 7 7 6 5 4 4 4
17 16 16 15 14 13 13 12 12 11 10 10 10 9 9 9 9 9 8 8 8 8 8 8 7 7 7 7 7 7 7 7 7 7 7 7 7 7 6 6 5 4 4
17 16 16 15 14 14 13 12 12 11 10 10 10 9 9 9 9 8 8 8 8 8 7 7 7 7 7 7 7 7 7 7 7 7 7 7 6 6 6 6 6 5 4
17 16 16 15 14 14 13 12 11 11 10 10 10 9 9 9 8 8 8 8 8 7 7 7 7 7 7 7 7 7 7 7 7 7 6 6 6 6 6 6 6 6 5
17 17 16 15 15 14 13 12 11 11 10 10 9 9 9 8 8 8 8 8 7 7 7 7 7 7 7 7 7 6 6 6 6 6 6 6 6 6 6 6 6 6 6
17 16 16 15 14 13 12 12 11 10 10 10 10 9 9 9 8 8 8 8 7 7 7 7 6 6 6 6 6 6 6 6 6 6 6 7 7 7 7 6 6 6 6
17 16 15 15 14 13 13 12 11 11 11 10 10 9 9 9 8 8 8 8 7 7 7 7 6 6 6 6 5 5 6 6 6 6 7 7 7 7 7 7 7 6 6
16 15 15 14 13 13 12 12 11 11 10 10 10 9 9 9 9 8 8 8 7 7 7 6 6 6 5 5 5 4 4 5 6 6 7 7 7 7 7 7 7 6 6
15 14 14 13 13 12 12 11 11 11 10 10 10 10 10 9 9 8 8 8 7 7 7 6 6 5 5 5 5 4 3 3 4 5 5 5 5 5 6 6 6 6 6
14 14 13 13 13 12 12 11 11 11 11 11 10 10 9 9 9 8 8 7 7 7 6 6 6 5 5 4 4 4 4 3 2 3 3 4 4 4 4 4 4 5 5
13 13 13 12 12 12 11 11 11 10 10 10 10 10 9 9 9 8 8 7 7 7 6 6 6 5 5 4 4 4 3 3 2 0 0 2 3 3 4 3 3 3 3
12 12 12 12 12 11 11 10 10 10 10 10 9 9 9 9 8 8 8 7 7 7 6 6 5 5 4 4 4 3 3 2 2 1 0 1 1 3 3 3 3 3 2

GEFSSE_850_meantemp_108.txt.gz
Temperature
19 18 16 15 14 14 13 12 12 12 11 11 11 11 10 10 10 9 9 9 9 9 9 9 9 9 10 10 10 11 11 11 11 11 11 11 11 11 11 12 12 12 13
19 18 17 15 14 14 13 12 12 12 11 11 11 10 10 10 9 9 9 9 9 9 9 9 9 9 9 10 10 11 11 11 11 11 11 10 10 10 10 10 11 11 11
19 18 17 15 14 14 13 12 12 11 11 11 10 10 10 10 9 9 9 9 9 9 8 8 9 9 9 10 10 10 11 11 11 11 10 9 9 9 9 10 10 10 10
19 18 17 16 15 14 13 12 12 11 11 11 10 10 10 9 9 9 9 8 9 8 9 9 9 9 9 9 10 10 11 11 10 10 9 9 8 8 9 9 9 9 10
19 18 17 16 15 14 13 12 12 11 11 11 10 10 10 9 9 9 8 8 8 9 9 9 9 9 9 9 10 10 10 10 10 9 9 9 8 8 8 8 8 9 9
19 18 17 16 15 14 13 12 12 11 11 11 10 10 9 9 9 9 8 9 8 9 9 8 8 9 9 9 9 10 10 10 9 9 9 8 8 8 8 8 8 8 8
18 18 17 16 15 14 13 12 11 11 11 10 10 10 10 9 9 9 9 9 9 8 8 8 8 8 8 9 9 9 9 9 9 8 8 8 7 7 7 7 8 8 8
18 17 17 16 15 13 13 12 11 11 11 10 10 10 9 9 9 9 9 9 8 8 8 8 8 8 9 9 9 9 9 9 8 8 8 7 7 7 7 7 7 7 7
18 17 16 15 14 13 12 12 11 11 10 10 10 10 9 9 9 9 9 8 8 8 8 8 8 9 9 9 9 9 9 9 8 8 8 7 7 7 6 7 7 7 7
17 17 16 14 13 12 12 11 11 10 10 10 10 9 9 9 9 8 8 8 8 8 8 8 8 8 9 9 8 8 8 8 8 8 7 7 7 7 6 6 6 6 6
17 17 16 14 13 12 11 11 11 10 10 10 10 9 9 9 8 8 8 8 8 8 8 8 8 8 8 8 8 8 8 8 7 8 8 8 8 7 6 6 6 6 6
17 16 16 14 13 12 11 11 10 10 10 10 9 9 9 8 8 8 8 8 8 8 8 8 8 8 8 7 8 8 8 8 8 8 8 8 8 7 6 6 6 6 6
16 16 15 14 13 12 11 11 10 10 10 9 9 9 9 8 8 8 8 8 8 8 8 8 8 7 7 7 7 8 8 8 8 8 8 8 8 8 7 6 5 5 5
15 15 15 14 14 13 11 11 10 10 10 9 9 9 9 9 8 8 8 8 8 8 8 8 8 7 8 8 8 8 8 8 8 8 8 8 8 8 7 7 5 5 5
16 15 15 15 14 13 12 11 10 10 10 9 9 9 9 8 8 8 8 8 8 8 8 8 8 7 7 7 8 8 8 8 8 8 8 8 8 8 8 7 6 5 5
16 16 15 15 14 13 12 11 11 10 10 9 9 9 9 8 8 8 8 8 8 8 7 7 7 7 7 7 7 7 8 7 8 8 8 8 8 8 8 8 7 6 6
16 16 15 15 14 13 12 11 10 10 10 10 9 9 9 8 8 8 8 8 8 7 7 7 7 7 7 7 7 7 7 7 7 7 7 8 8 8 8 8 8 7 7
16 16 15 15 14 13 12 11 11 10 10 9 9 9 9 8 8 8 8 8 7 7 7 7 7 7 7 7 7 7 7 7 7 7 7 7 8 8 8 8 8 8 7
16 15 15 14 13 12 12 11 10 10 10 9 9 9 9 8 8 8 8 7 7 7 7 7 7 6 6 6 6 6 6 6 7 7 7 7 8 8 8 8 8 8 8
15 15 15 14 13 12 12 11 11 10 10 10 10 9 9 9 8 8 8 8 7 7 7 7 7 6 6 6 5 5 5 5 6 6 7 7 7 8 8 8 8 8 8
15 14 14 14 13 13 12 11 11 11 10 10 10 10 9 9 9 8 8 8 7 7 7 7 6 6 6 6 5 5 5 5 5 6 7 8 8 8 8 8 8 8 8
14 14 14 13 13 12 12 11 11 11 11 10 10 10 9 9 9 8 8 8 8 7 7 7 7 6 6 5 4 3 4 5 6 5 6 7 8 8 8 8 8 8 8
13 13 13 13 12 12 12 11 11 11 11 10 10 10 10 9 9 9 8 8 8 7 7 7 7 6 5 5 4 3 3 5 6 5 5 5 6 6 6 7 7 7 7
13 12 12 12 12 12 11 11 11 10 10 10 10 9 9 9 9 8 8 8 7 7 7 7 7 6 5 5 4 3 3 3 3 4 4 4 4 4 4 5 5 6 6
12 12 12 12 11 11 11 11 10 10 9 9 9 9 8 8 8 8 8 7 7 7 7 6 6 5 5 4 4 3 2 2 1 1 2 4 4 3 3 3 3 4 5
11 11 11 11 11 11 10 10 9 9 9 8 8 8 8 7 7 7 7 7 6 6 6 6 5 5 5 4 3 3 2 1 1 1 1 2 3 3 3 2 2 2 3

GEFSSE_850_meantemp_114.txt.gz
Temperature
18 19 17 16 15 15 14 13 12 12 12 11 11 11 11 10 10 10 10 10 10 9 9 9 10 10 10 10 11 11 11 12 11 11 11 11 11 11 12 12 13 13 13
19 19 17 16 15 14 14 13 12 12 11 11 11 11 10 10 10 10 10 10 10 9 9 9 9 10 10 10 11 11 11 11 10 10 10 10 10 11 11 11 11 11 12
19 19 18 17 16 14 14 13 12 12 11 11 11 10 10 10 10 10 9 9 9 9 9 9 10 10 10 10 11 11 11 11 10 9 10 10 10 10 10 10 11 11 11
18 19 18 17 16 15 14 13 12 12 11 11 11 10 10 10 9 9 9 9 9 9 10 10 10 10 10 11 11 11 11 11 10 9 9 9 9 9 9 10 10 10 10
18 18 18 17 16 14 13 12 12 12 11 11 11 10 10 10 9 9 9 9 10 10 10 10 10 10 11 11 11 11 11 10 10 9 9 9 9 9 9 9 10 10 10
18 17 18 17 16 14 13 12 11 11 11 10 10 10 10 9 9 9 9 9 10 10 10 10 10 11 11 11 11 11 11 10 9 9 9 9 9 9 9 9 9 9 10
17 17 17 16 15 14 13 12 11 11 10 10 10 10 9 9 9 9 9 9 10 10 10 10 10 11 11 11 11 11 11 10 10 9 9 9 9 9 9 9 9 9 9
17 16 17 16 15 14 13 12 11 11 10 10 10 10 9 9 9 9 9 9 9 9 10 10 10 10 11 11 11 11 11 10 10 10 9 9 10 9 9 9 9 9 9
17 16 16 15 14 13 12 12 11 11 10 10 10 9 9 9 9 9 9 9 9 9 10 10 10 10 10 10 10 10 10 10 10 10 10 10 10 10 10 10 10 9 9
16 16 15 15 14 13 12 12 11 11 10 10 10 10 9 9 9 9 9 9 9 9 9 10 10 10 10 10 10 10 10 10 10 10 10 10 10 10 10 10 10 10 10
16 15 14 14 13 12 12 11 11 11 10 10 10 10 10 9 9 9 9 9 9 9 9 9 9 9 10 10 10 10 10 10 10 10 10 10 10 10 10 10 10 10 10
16 15 14 13 13 12 12 11 11 10 10 10 10 10 9 9 9 9 9 9 9 9 9 9 9 9 9 10 10 10 10 10 10 10 10 10 10 10 10 10 9 9 9
16 15 14 13 13 12 11 11 11 10 10 10 9 9 9 9 8 8 8 9 9 9 9 9 9 9 9 9 9 9 9 9 9 9 10 10 10 10 10 10 10 9 9
15 15 14 13 13 12 11 11 11 10 10 10 9 9 9 9 8 8 8 8 8 9 9 8 8 8 8 8 8 8 9 9 9 9 9 10 10 10 10 10 10 10 9
15 14 14 13 12 12 11 11 11 10 10 10 9 9 9 9 9 8 8 8 8 8 8 8 8 8 8 8 8 8 8 8 9 9 9 9 10 10 10 10 10 10 10
15 14 13 13 12 12 11 11 10 10 10 10 9 9 9 9 8 8 8 8 8 8 8 8 8 8 8 7 7 8 8 8 8 8 9 9 9 9 10 10 10 10 10
14 14 13 13 12 12 11 11 10 10 10 10 9 9 9 9 8 8 8 8 8 8 7 7 7 7 7 7 7 7 7 8 8 8 8 8 9 9 9 9 10 9 9
14 14 13 13 12 11 11 11 10 10 10 10 9 9 9 9 8 8 8 8 8 7 7 7 7 7 7 7 7 7 7 7 7 8 8 8 8 9 9 9 9 9 9
14 14 13 13 12 11 11 11 10 10 10 9 9 9 9 9 8 8 8 8 8 7 7 7 7 7 7 7 7 7 7 7 7 7 7 8 8 8 9 9 9 9 9
14 13 13 13 12 12 11 11 10 10 10 10 10 9 9 9 9 8 8 8 8 8 7 7 7 6 6 6 6 6 6 7 7 7 7 8 8 8 8 8 8 8 8
13 13 13 12 12 12 11 11 11 10 10 10 10 10 9 9 9 9 9 8 8 8 8 7 7 6 6 6 5 5 6 6 7 7 8 8 8 8 8 7 7 8 8
13 13 13 12 12 12 11 11 11 11 10 10 10 10 10 9 9 9 8 8 8 8 7 7 7 6 6 6 5 4 4 5 6 6 7 7 7 7 7 7 7 7 7
13 13 13 12 12 12 11 11 11 10 10 10 10 9 9 9 9 8 8 8 7 7 7 7 6 6 5 5 5 4 3 4 4 5 5 6 6 6 6 6 6 6 6
13 13 12 12 12 12 11 11 10 10 9 9 9 9 9 8 8 8 7 7 7 7 6 6 6 5 5 5 5 4 4 3 3 3 3 4 5 5 5 5 5 5 5
12 12 12 12 11 11 11 10 10 9 9 9 8 8 8 8 7 7 7 6 6 6 6 6 5 5 5 4 4 4 4 3 3 2 2 3 4 4 4 4 4 4 4
12 12 11 11 11 10 10 10 9 9 9 8 8 8 7 7 7 6 6 6 6 5 5 5 5 4 4 4 4 3 3 3 3 2 2 2 2 3 3 3 3 3 4

GEFSSE_850_meantemp_120.txt.gz
Temperature
17 16 15 15 14 14 13 13 12 12 12 12 11 11 11 11 11 11 10 10 10 10 10 10 11 11 11 11 11 11 11 11 11 11 11 11 12 12 12 13 13 13 14
18 17 16 15 14 14 13 12 12 12 12 11 11 11 11 11 11 10 10 10 10 10 10 10 10 10 11 11 11 11 11 11 11 11 11 11 11 11 12 12 12 12 13
18 17 16 15 14 14 13 12 12 12 12 11 11 11 11 10 10 10 10 10 10 10 10 10 10 11 11 11 11 11 10 10 11 11 11 11 11 10 11 11 11 11 12
18 18 17 15 14 14 13 12 12 12 11 11 11 11 10 10 10 10 10 10 10 11 11 11 11 11 11 11 11 11 11 11 11 12 11 11 10 10 10 10 10 11 11
18 17 17 16 15 14 13 12 12 11 11 11 11 10 10 10 10 10 10 11 11 11 11 11 11 11 12 12 11 11 11 11 12 11 11 11 10 10 10 10 10 10 10
18 17 17 16 14 14 13 12 11 11 11 11 11 10 10 10 10 10 11 11 11 11 11 11 12 12 12 12 12 12 12 11 12 11 11 11 11 10 10 10 10 10 10
18 17 16 15 14 13 13 12 11 11 11 10 10 10 10 10 10 11 11 11 11 11 11 12 12 12 12 12 12 12 11 11 12 11 11 11 11 10 10 10 10 10 10
17 17 16 15 14 13 12 12 11 11 11 10 10 10 10 10 10 10 11 11 11 11 11 11 11 11 12 11 11 11 11 11 11 11 11 11 11 11 10 11 11 11 11
17 16 16 15 14 13 12 12 11 11 10 10 10 10 10 10 10 10 10 10 10 11 11 11 11 11 11 11 11 11 11 11 11 11 11 11 11 11 11 11 11 11 11
16 16 15 14 14 13 12 12 11 11 10 10 10 10 10 10 10 10 10 10 10 10 10 10 10 11 11 11 11 11 11 11 11 11 11 11 11 11 10 10 10 10 10
15 15 14 14 13 13 12 11 11 11 10 10 10 10 10 10 10 10 9 9 9 10 10 10 10 10 10 10 10 10 10 10 10 10 10 10 10 10 10 10 10 10 10
15 14 14 14 13 13 12 11 11 11 10 10 10 10 9 9 9 9 9 9 9 9 9 9 9 9 9 10 10 10 10 10 10 10 10 10 10 10 9 9 9 9 9
15 14 14 13 13 12 12 11 11 10 10 10 10 9 9 9 9 9 9 9 9 9 9 9 9 9 9 9 9 9 9 9 9 9 9 9 9 9 9 9 9 9 9
15 14 14 13 13 12 12 11 11 10 10 10 10 9 9 9 9 9 9 8 8 8 8 8 8 8 8 8 8 8 8 9 9 9 9 9 9 9 9 9 8 8 8
15 14 14 13 12 12 11 11 11 10 10 10 10 9 9 9 9 9 8 8 8 8 8 8 8 8 8 8 8 8 8 8 8 8 8 8 8 8 8 8 8 8 8
15 14 13 13 12 12 11 11 11 10 10 10 10 9 9 9 9 9 8 8 8 8 8 8 7 7 7 7 7 7 7 7 7 7 7 8 8 8 8 8 8 8 7
15 14 13 13 12 12 11 11 11 10 10 10 9 9 9 9 9 8 8 8 8 8 7 7 7 7 7 7 7 7 7 7 7 7 7 7 8 8 8 8 7 7 7
14 14 13 13 12 12 11 11 10 10 10 10 9 9 9 9 8 8 8 8 8 7 7 7 7 7 7 7 7 7 6 6 7 7 7 7 8 8 8 8 7 7 7
14 14 13 13 12 12 11 11 10 10 10 10 9 9 9 9 8 8 8 8 8 8 7 7 7 7 7 7 6 6 6 7 7 7 7 8 8 8 8 8 8 7 7
14 13 13 12 12 11 11 11 10 10 10 10 9 9 9 9 9 8 8 8 8 7 7 7 7 6 6 6 6 6 6 6 7 7 7 7 7 7 7 7 7 7 7
13 13 13 12 12 11 11 11 11 10 10 10 10 9 9 9 9 8 8 8 8 7 7 7 6 6 6 6 5 5 6 6 7 7 6 6 7 6 6 6 6 6 6
13 13 13 12 12 12 11 11 10 10 10 10 9 9 9 9 8 8 8 8 7 7 7 6 6 6 6 5 4 4 4 4 5 5 5 5 5 5 5 5 5 5 5
13 13 13 12 12 12 11 11 10 10 10 10 10 9 9 8 8 8 7 7 7 6 6 6 5 5 5 5 4 3 3 3 3 3 3 4 4 4 4 4 4 4 4
13 12 12 12 12 11 11 11 10 10 10 9 9 9 8 8 7 7 7 6 6 6 5 5 5 4 4 4 4 4 3 2 2 1 2 2 2 3 3 3 3 3 3
12 12 12 12 11 11 11 10 10 10 9 9 8 8 8 7 7 7 6 6 6 5 5 4 4 4 3 3 3 3 2 2 2 1 1 1 2 2 2 2 2 2 3
12 12 11 11 11 11 10 10 10 9 9 8 8 7 7 7 7 6 6 5 5 4 4 4 4 3 3 3 2 2 2 1 1 1 0 0 0 1 1 1 1 2 2

GEFSSE_850_meantemp_126.txt.gz
Temperature
17 16 14 13 13 13 12 12 12 12 12 11 11 11 11 10 10 11 10 10 10 10 11 11 11 11 11 11 11 11 12 12 12 12 12 12 12 12 12 13 13 13 13
17 16 14 13 13 12 12 12 12 12 11 11 11 11 10 10 10 10 10 10 10 10 10 10 10 11 11 11 11 11 11 12 12 12 12 12 11 11 11 12 12 12 13
17 16 15 14 13 12 12 12 12 11 11 11 11 11 10 10 10 10 10 10 10 10 10 10 10 10 10 10 11 11 11 12 12 11 11 11 11 10 11 11 11 11 12
17 17 15 14 13 12 12 12 12 11 11 11 11 11 10 10 10 10 10 10 10 10 10 10 10 10 10 10 11 11 12 12 11 11 11 11 10 10 10 10 10 10 11
17 16 15 14 13 13 12 12 11 11 11 11 11 10 10 10 10 10 10 10 10 10 10 10 10 11 11 11 11 11 12 11 11 11 11 11 10 9 9 10 10 10 10
17 16 15 14 13 12 12 12 11 11 11 10 10 10 10 10 10 10 10 10 10 10 10 10 10 11 11 11 11 11 11 11 11 11 11 10 10 9 9 9 10 10 10
17 16 15 13 13 12 12 11 11 11 10 10 10 10 10 10 10 10 10 10 10 10 10 10 10 10 10 10 10 11 11 11 11 11 10 10 10 10 9 9 9 10 10
16 15 14 13 13 12 12 11 11 11 10 10 10 10 9 9 9 10 10 10 10 10 10 10 10 10 10 10 10 10 10 10 10 10 10 10 10 10 9 9 9 9 9
15 15 14 13 12 12 11 11 11 11 10 10 10 10 9 9 9 9 9 9 9 10 10 10 10 10 10 10 10 10 10 10 10 10 10 10 10 10 9 9 8 8 8
15 14 14 13 12 12 11 11 11 10 10 10 10 10 9 9 9 9 9 9 9 9 9 9 9 9 9 9 9 9 9 9 9 9 9 9 9 9 9 8 8 8 8
14 14 13 13 12 12 11 11 11 10 10 10 10 10 9 9 9 9 9 9 9 9 9 9 9 9 9 9 9 9 9 9 9 9 9 9 9 9 8 8 7 7 7
15 14 13 13 12 12 11 11 10 10 10 10 9 9 9 9 9 9 9 8 8 8 8 8 8 8 8 8 8 8 8 8 8 8 8 8 9 9 8 7 7 7 7
15 14 13 13 12 12 11 11 10 10 10 10 9 9 9 9 9 9 8 8 8 8 8 8 8 8 8 8 8 8 8 8 8 8 8 8 8 8 8 7 7 7 7
14 14 13 13 12 12 11 11 10 10 10 10 9 9 9 9 9 8 8 8 8 8 8 8 7 7 7 7 7 7 7 8 8 8 8 8 8 8 8 8 7 7 7
14 14 13 13 12 11 11 11 10 10 10 10 9 9 9 9 9 9 8 8 8 8 8 8 7 7 7 7 7 7 7 7 7 8 8 8 8 8 8 8 8 7 7
14 14 13 13 12 11 11 11 10 10 10 9 9 9 9 9 9 8 8 8 8 8 8 7 7 7 7 7 7 7 7 7 7 8 8 8 8 8 8 8 8 8 7
14 14 13 12 12 11 11 11 10 10 10 10 9 9 9 9 9 8 8 8 8 8 7 7 7 7 7 7 7 7 7 7 8 8 8 8 8 8 8 8 8 8 8
14 14 13 12 12 11 11 11 10 10 10 10 9 9 9 9 8 8 8 8 8 8 7 7 7 7 7 7 7 7 7 8 8 8 8 8 8 8 7 7 7 7 7
14 14 13 12 12 11 11 11 10 10 10 10 9 9 9 9 8 8 8 8 8 8 7 7 7 7 7 7 7 7 7 7 8 8 8 8 7 7 7 7 7 6 6
14 14 13 12 12 11 11 11 10 10 10 10 9 9 9 9 8 8 8 8 8 8 7 7 7 7 6 6 6 7 7 7 7 8 7 7 7 7 6 6 6 6 6
14 13 13 12 12 11 11 10 10 10 10 9 9 9 9 8 8 8 8 8 8 7 7 7 7 6 6 6 6 6 7 7 7 7 6 6 6 6 6 6 5 5 5
14 13 13 12 12 11 11 11 10 10 10 9 9 9 9 8 8 8 8 8 7 7 7 6 6 6 6 5 4 4 4 4 4 4 5 5 5 5 5 5 5 5 5
14 13 13 12 12 11 11 10 10 10 10 9 9 9 9 8 8 8 8 7 7 7 6 6 5 5 5 4 4 3 2 2 2 3 3 3 4 3 4 4 4 4 4
13 13 12 12 11 11 11 10 10 10 10 9 9 9 8 8 8 7 7 7 6 6 6 5 5 4 4 4 3 3 2 1 1 1 1 2 2 2 3 3 3 3 3
13 13 12 12 11 11 10 10 10 10 9 9 9 8 8 8 7 7 7 6 6 6 5 5 4 4 4 3 3 2 2 1 1 -0 -0 1 1 2 2 2 2 2 2
12 12 12 11 11 11 10 10 10 9 9 9 8 8 8 7 7 7 6 6 5 5 5 4 4 4 3 3 2 2 1 1 0 -0 -1 -1 -1 -0 0 1 1 1 1